This is the latest recevied weather packets stored in our database for station/object KC3JUG-3. If no packets are shown the sender has not sent any weather packets the latest 10 day(s).
| Time | Temp. | Humidity | Pressure | Rain* | Wind** | Luminosity | Snow |
|---|---|---|---|---|---|---|---|
| 1777224659 | 10° C | 82% | 1021.1 hPa | 0 mm | - | - | - |
| 1777223445 | 9.44° C | 84% | 1021 hPa | 0 mm | - | - | - |
| 1777223145 | 8.89° C | 84% | 1021.2 hPa | 0 mm | - | - | - |
| 1777218365 | 7.22° C | 92% | 1021.4 hPa | 0 mm | - | - | - |
| 1777216245 | 6.67° C | 95% | 1021.1 hPa | 0 mm | - | - | - |
| 1777215648 | 6.11° C | 96% | 1020.8 hPa | 0 mm | - | - | - |
| 1777212054 | 5° C | 97% | 1020.6 hPa | 0 mm | - | - | - |
| 1777211447 | 5° C | 97% | 1020.3 hPa | 0 mm | - | - | - |
| 1777210255 | 5° C | 97% | 1020.2 hPa | 0 mm | - | - | - |
| 1777209047 | 4.44° C | 97% | 1020.2 hPa | 0 mm | - | - | - |
| 1777208747 | 4.44° C | 97% | 1020.2 hPa | 0 mm | - | - | - |
| 1777207846 | 4.44° C | 98% | 1020 hPa | 0 mm | - | - | - |
| 1777206348 | 4.44° C | 97% | 1019.8 hPa | 0 mm | - | - | - |
| 1777206047 | 4.44° C | 97% | 1019.9 hPa | 0 mm | - | - | - |
| 1777205151 | 4.44° C | 97% | 1019.8 hPa | 0 mm | - | - | - |
| 1777203649 | 4.44° C | 97% | 1019.4 hPa | 0 mm | - | - | - |
| 1777202746 | 4.44° C | 98% | 1019.1 hPa | 0 mm | - | - | - |
| 1777199468 | 3.89° C | 97% | 1018.5 hPa | 0 mm | - | - | - |
| 1777198848 | 3.89° C | 97% | 1018.3 hPa | 0 mm | - | - | - |
| 1777196750 | 3.89° C | 97% | 1017.9 hPa | 0.25 mm | - | - | - |
| 1777196446 | 3.89° C | 97% | 1017.8 hPa | 0.25 mm | - | - | - |
| 1777194056 | 3.89° C | 97% | 1017.5 hPa | 0.25 mm | - | - | - |
| 1777193749 | 3.89° C | 97% | 1017.4 hPa | 0.25 mm | - | - | - |
| 1777188347 | 3.89° C | 97% | 1016.9 hPa | 0 mm | - | - | - |
| 1777187446 | 3.89° C | 97% | 1016.8 hPa | 0 mm | - | - | - |
* Rain latest hour (hover to see other rain measurements)
** Current wind speed in m/s (hover to see current wind gust speed)